THOR ABLESTAR DEB, 4014

Orbit data source: Space-Track

THOR ABLESTAR DEB, 4014 is space debris in LEO originally from a launch on Thu, 29 Jun 1961 UTC launched from the Air Force Eastern Test Range (AFETR). Debris objects in space refer to the collection of defunct objects orbiting the Earth. Examples of debris include non-operational satellites, rocket bodies, and fragments generated from explosions, collisions, or faulty payload assembly.

Loading next visibility...
Identifier
4014, 1961-015JM
Orbit
LEO
Country
Flag of USUS
Related business
Manufacturer
Unknown
Mission
Spacecraft
Bus & Motor
Unknown
Mass
Unknown
Launch date (UTC)
1961-06-29 (65 years ago)
Launch vehicle
Unknown
Launch site
Air Force Eastern Test Range (AFETR)
Object type
Payload
Rocket body
Debris
Shape & HBR
Unknown shape, 0.1 m
Radar Cross Section
Medium (>0.1 m² and <1 m²)

Expand to show TLE details & history
Last TLE update: 1 day ago

TLE from 1 day ago
0 THOR ABLESTAR DEB
1 04014U 61015JM  26264.71277576  .00001007  00000-0  29564-2 0  9990
2 04014  67.6280  52.5828 0813258 282.8761  82.0353 12.30184801926243
Epoch: 2026-09-21T17:06Z
TLE epoch observation values (Epoch: 2026-09-21T17:06:23.825Z)
Latitude
13.11932°
Longitude
160.87266°
Altitude
1,512.481 km
Speed
7.127 km/s
True Right ascension
03h 52m 14s
True Declination
13° 03' 03"
Sunlit
Object was in daylight at epoch
Visualization orbit readout
Latitude
Unknown
Longitude
Unknown
Altitude
Unknown
Speed
Unknown
Apparent Right ascension
Unknown
Apparent Declination
Unknown
Sunlit
N/A
Visualization observer readout
Local Sidereal Time
16:00:25
Azimuth
Unknown
Elevation
Unknown
Doppler factor
Unknown
Orbital elements
Apogee altitude
2,191.416 km
Perigee altitude
902.395 km
Semi-major axis
7,925.043 km
Eccentricity
0.08133
Inclination
67.628°
RAAN
52.5828°
Arg. of periapsis
282.8761°
True anomaly
91.3551°
Mean anomaly
82.0353°
Eccentric anomaly
86.68714°
Mean motion
3.07639 °/min
Orbital period
117.02 mins
BSTAR
0.0029564

Documentation

Showing up to 5 results
|